Regional Weather Roundup
Issued by NWS

Home | Current Version | Previous Version | Text Only | Print | Product List | Glossary Off
Versions: 1 2 3 4 5 6 7 8 9 10 11 12 13 14 15 16 17 18 19 20 21 22 23 24 25 26 27 28 29 30 31 32 33 34 35 36 37 38 39 40 41 42 43 44 45 46 47 48 49 50

000
ASUS45 KSLC 180510
RWRUT

UTAH REGIONAL WEATHER ROUNDUP
NATIONAL WEATHER SERVICE SALT LAKE CITY UT
1000 PM MST SUN DEC 17 2017

UTZ001>011-023>025-180600-

NORTHERN UTAH

CITY           SKY/WX    TMP DP  RH WIND       PRES   REMARKS
BRIGHAM CITY   CLOUDY    30  24  78 CALM      30.29R
HILL AFB       MOCLDY    26  21  83 CALM      30.25R
LOGAN          CLOUDY    32  23  69 NE3       30.27R
OGDEN          MOCLDY    26  22  84 S5        30.26R WCI  20
SALT LAKE CITY MOCLDY    29  23  78 W3        30.27R
TOOELE VALLEY  MOCLDY    18  16  93 SE6       30.28R WCI   9
WENDOVER       CLOUDY    30  20  66 CALM      30.27R
HEBER CITY       N/A     18  12  79 SE3       30.20R
WEST JORDAN    PTCLDY    24  22  92 CALM      30.27R

$$

UTZ011>015-024>027-180600-

CENTRAL/NORTHEAST UTAH

CITY           SKY/WX    TMP DP  RH WIND       PRES   REMARKS
PROVO AIRPORT  PTCLDY    21  17  84 E3        30.27R
MOAB/CANYONLAN PTCLDY    23  10  57 CALM      30.14R
DELTA          CLEAR     21  18  86 S5        30.25S WCI  15
PRICE          CLEAR     25  12  58 N10       30.12R WCI  15
RICHFIELD      CLEAR     19  14  79 CALM      30.24R
ROOSEVELT      CLOUDY    19  12  73 W6        30.17R WCI  11
VERNAL         CLOUDY    23  15  71 CALM      30.15R

$$

UTZ013>016-019>022-027-180600-

SOUTHERN UTAH

CITY           SKY/WX    TMP DP  RH WIND       PRES   REMARKS
BRYCE CANYON   CLEAR     13  10  88 N7        30.17R WCI   3
CEDAR CITY     PTCLDY    19  16  88 SE3       30.20S
MILFORD        CLEAR     17  14  88 CALM      30.24R
ST GEORGE      PTCLDY    37  19  48 E8        30.18R WCI  31
HANKSVILLE     PTCLDY    19   9  63 CALM      30.17R
KANAB          CLEAR     34  16  47 N10       30.18S WCI  26
BLANDING         N/A     24   5  43 N5        30.18S WCI  19

$$

REGIONAL REPORTS     COLORADO/ARIZONA

CITY           SKY/WX    TMP DP  RH WIND       PRES   REMARKS
CRAIG, CO      CLOUDY    11   7  84 W5        30.15R WCI   3
GRAND JUNCTION CLOUDY    23   8  52 E6        30.15R WCI  16
RIFLE, CO      CLOUDY    21   8  57 CALM      30.16R
MONTROSE, CO   CLOUDY    21   7  54 S9        30.19R WCI  11
CORTEZ, CO     CLOUDY    19   3  49 E9        30.14R WCI   8
COLORADO CITY    N/A     23  14  68 SE3       30.17R
PAGE, AZ       CLEAR     35  17  47 SE3       30.12S
GRAND CANYON   CLEAR     16   1  51 CALM      30.12R
KINGMAN, AZ    CLEAR     37  17  44 E13       30.10S WCI  29
FLAGSTAFF, AZ  CLEAR     24   9  52 CALM      30.09R

$$

REGIONAL REPORTS    NEVADA/IDAHO/WYOMING

CITY           SKY/WX    TMP DP  RH WIND       PRES   REMARKS
LAS VEGAS, NV  PTCLDY    51  15  23 NE10      30.14R
ELY, NY        PTCLDY    14   8  77 S10       30.22R WCI   1
ELKO, NV       CLOUDY    23  16  74 CALM      30.27R
POCATELLO, ID  CLOUDY    23  17  78 SW5       30.24F WCI  17
BURLEY, ID     CLOUDY    32  23  69 CALM      30.23S
FORT BRIDGER,    N/A     21  16  79 W18       30.16S WCI   7
EVANSTON, WY   CLOUDY    18  15  88 W9        30.16R WCI   7
ROCK SPRINGS,  CLOUDY    21  13  71 SW21      30.09S WCI   5

$$



USA.gov is the U.S. government's official web portal to all federal, state and local government web resources and services.